When you browse on this site, cookies collect data to enhance your experience and personalize the content and advertising you see.
Visit our Privacy Policy to learn more. By continuing to use the site, you agree to this use of cookies and data.
  • Em Portugal
  • Lista de países
  • Para 7 dias
  • Temperatura da água
  • Mapas de satélite
  • Mapa do tempo
  • Widgets de tempo
  • user-avatar
    Iniciar Sessão

    Previsão horária em Janowiec

    Hoje, 23 Fevereiro, Sábado

    Tempo Temperatura Precipitação Vento Pressão Humidade
    00:00 -2°C° 0 mm 1 m/s 770 mmHg 52%
    01:00 -2°C° 0 mm 1 m/s 770 mmHg 50%
    02:00 -3°C° 0 mm 1 m/s 770 mmHg 50%
    03:00 -3°C° 0 mm 1 m/s 770 mmHg 49%
    04:00 -5°C° 0 mm 2 m/s 769 mmHg 49%
    05:00 -3°C° 0 mm 1 m/s 769 mmHg 48%
    06:00 -3°C° 0 mm 1 m/s 770 mmHg 47%
    07:00 -5°C° 0 mm 2 m/s 770 mmHg 46%
    08:00 -4°C° 0 mm 2 m/s 770 mmHg 42%
    09:00 -3°C° 0 mm 2 m/s 770 mmHg 38%
    10:00 -3°C° 0 mm 2 m/s 769 mmHg 34%
    11:00 -2°C° 0 mm 3 m/s 769 mmHg 31%
    12:00 -1°C° 0 mm 3 m/s 769 mmHg 29%
    13:00 0°C° 0 mm 3 m/s 769 mmHg 28%
    14:00 0°C° 0 mm 3 m/s 769 mmHg 28%
    15:00 0°C° 0 mm 3 m/s 768 mmHg 29%
    16:00 0°C° 0 mm 3 m/s 768 mmHg 30%
    17:00 -1°C° 0 mm 3 m/s 767 mmHg 33%
    18:00 -2°C° 0 mm 3 m/s 767 mmHg 36%
    19:00 -2°C° 0 mm 2 m/s 767 mmHg 39%
    20:00 -2°C° 0 mm 2 m/s 767 mmHg 39%
    21:00 -2°C° 0 mm 2 m/s 766 mmHg 39%
    22:00 -2°C° 0 mm 3 m/s 766 mmHg 39%
    23:00 -2°C° 0 mm 3 m/s 766 mmHg 38%

    Amanhã, 24 Fevereiro, Domingo

    Tempo Temperatura Precipitação Vento Pressão Humidade
    00:00 -2°C° 0 mm 3 m/s 766 mmHg 37%
    01:00 -1°C° 0 mm 3 m/s 766 mmHg 37%
    02:00 -1°C° 0 mm 3 m/s 765 mmHg 38%
    03:00 -1°C° 0 mm 3 m/s 765 mmHg 39%
    04:00 -1°C° 0 mm 2 m/s 765 mmHg 41%
    05:00 -2°C° 0 mm 2 m/s 765 mmHg 41%
    06:00 -2°C° 0 mm 3 m/s 764 mmHg 41%
    07:00 -2°C° 0 mm 3 m/s 764 mmHg 41%
    08:00 -1°C° 0 mm 3 m/s 764 mmHg 40%
    09:00 +1°C° 0 mm 3 m/s 764 mmHg 38%
    10:00 +2°C° 0 mm 3 m/s 764 mmHg 36%
    11:00 +3°C° 0 mm 3 m/s 764 mmHg 37%
    12:00 +4°C° 0 mm 3 m/s 764 mmHg 38%
    13:00 +5°C° 0 mm 4 m/s 764 mmHg 39%
    14:00 +5°C° 0 mm 3 m/s 764 mmHg 44%
    15:00 +4°C° 0 mm 3 m/s 763 mmHg 49%
    16:00 +4°C° 0 mm 3 m/s 763 mmHg 54%
    17:00 +3°C° 0 mm 3 m/s 763 mmHg 56%
    18:00 +2°C° 0 mm 3 m/s 763 mmHg 59%
    19:00 +1°C° 0 mm 3 m/s 763 mmHg 61%
    20:00 +1°C° 0 mm 3 m/s 763 mmHg 63%
    21:00 +1°C° 0 mm 3 m/s 763 mmHg 66%
    22:00 0°C° 0 mm 3 m/s 763 mmHg 68%
    23:00 0°C° 0 mm 3 m/s 763 mmHg 73%

    Depois de amanhã, 25 Fevereiro, Segunda-feira

    Tempo Temperatura Precipitação Vento Pressão Humidade
    00:00 0°C° 0 mm 3 m/s 763 mmHg 78%
    01:00 0°C° 0 mm 3 m/s 763 mmHg 83%
    02:00 0°C° 0 mm 3 m/s 762 mmHg 87%
    03:00 0°C° 0 mm 3 m/s 762 mmHg 90%
    04:00 0°C° 0 mm 3 m/s 762 mmHg 94%
    05:00 0°C° 0 mm 3 m/s 762 mmHg 95%
    06:00 0°C° 0 mm 3 m/s 762 mmHg 96%
    07:00 0°C° 0 mm 3 m/s 762 mmHg 97%
    08:00 +1°C° 0 mm 3 m/s 762 mmHg 95%
    09:00 +1°C° 0 mm 4 m/s 763 mmHg 93%
    10:00 +3°C° 0 mm 4 m/s 763 mmHg 91%
    11:00 +4°C° 0 mm 4 m/s 763 mmHg 84%
    12:00 +6°C° 0 mm 4 m/s 762 mmHg 77%
    13:00 +7°C° 0 mm 4 m/s 762 mmHg 70%
    14:00 +6°C° 0 mm 4 m/s 762 mmHg 71%
    15:00 +7°C° 0 mm 3 m/s 762 mmHg 71%
    16:00 +7°C° 0 mm 3 m/s 762 mmHg 72%
    17:00 +4°C° 0 mm 3 m/s 762 mmHg 78%
    18:00 +3°C° 0 mm 3 m/s 761 mmHg 84%
    19:00 +2°C° 0 mm 3 m/s 761 mmHg 91%
    20:00 +2°C° 0 mm 3 m/s 761 mmHg 92%
    21:00 +2°C° 0 mm 3 m/s 761 mmHg 93%
    22:00 +2°C° 0 mm 3 m/s 761 mmHg 94%
    23:00 +2°C° 0 mm 3 m/s 760 mmHg 95%

    26 Fevereiro, Terça-feira

    Tempo Temperatura Precipitação Vento Pressão Humidade
    00:00 +2°C° 0 mm 3 m/s 760 mmHg 96%
    01:00 +3°C° 0 mm 3 m/s 760 mmHg 96%
    02:00 +3°C° 0 mm 4 m/s 759 mmHg 96%
    03:00 +3°C° 0 mm 4 m/s 759 mmHg 95%
    04:00 +3°C° 0 mm 5 m/s 758 mmHg 94%
    05:00 +3°C° 0 mm 5 m/s 758 mmHg 94%
    06:00 +2°C° 0 mm 5 m/s 758 mmHg 93%
    07:00 +2°C° 0 mm 5 m/s 758 mmHg 93%
    08:00 +3°C° 0 mm 5 m/s 758 mmHg 90%
    09:00 +3°C° 0 mm 5 m/s 758 mmHg 88%
    10:00 +5°C° 0 mm 5 m/s 758 mmHg 85%
    11:00 +5°C° 0 mm 4 m/s 759 mmHg 80%
    12:00 +6°C° 0 mm 4 m/s 759 mmHg 76%
    13:00 +8°C° 0 mm 3 m/s 759 mmHg 71%
    14:00 +8°C° 0 mm 3 m/s 759 mmHg 70%
    15:00 +8°C° 0 mm 3 m/s 759 mmHg 68%
    16:00 +8°C° 0 mm 3 m/s 759 mmHg 66%
    17:00 +7°C° 0 mm 3 m/s 759 mmHg 73%
    18:00 +5°C° 0 mm 2 m/s 759 mmHg 79%
    19:00 +4°C° 0 mm 2 m/s 760 mmHg 85%
    20:00 +4°C° 0 mm 2 m/s 760 mmHg 86%
    21:00 +4°C° 0 mm 1 m/s 760 mmHg 86%
    22:00 +4°C° 0 mm 1 m/s 760 mmHg 86%
    23:00 +4°C° 0 mm 1 m/s 760 mmHg 87%

    27 Fevereiro, Quarta-feira

    Tempo Temperatura Precipitação Vento Pressão Humidade
    00:00 +4°C° 0 mm 1 m/s 759 mmHg 87%
    01:00 +3°C° 0 mm 1 m/s 759 mmHg 87%
    02:00 +2°C° 0 mm 2 m/s 759 mmHg 89%
    03:00 +2°C° 0 mm 2 m/s 758 mmHg 91%
    04:00 +2°C° 0 mm 2 m/s 758 mmHg 93%
    05:00 +2°C° 0 mm 2 m/s 757 mmHg 92%
    06:00 +1°C° 0 mm 3 m/s 757 mmHg 92%
    07:00 +1°C° 0 mm 3 m/s 757 mmHg 92%
    08:00 +2°C° 0 mm 3 m/s 757 mmHg 86%
    09:00 +4°C° 0 mm 4 m/s 756 mmHg 80%
    10:00 +5°C° 0 mm 4 m/s 756 mmHg 74%
    11:00 +6°C° 0 mm 4 m/s 756 mmHg 72%
    12:00 +7°C° 0 mm 4 m/s 756 mmHg 70%
    13:00 +8°C° 0 mm 4 m/s 755 mmHg 67%
    14:00 +8°C° 0 mm 4 m/s 755 mmHg 69%
    15:00 +8°C° 0 mm 4 m/s 754 mmHg 71%
    16:00 +7°C° 0 mm 4 m/s 754 mmHg 73%
    17:00 +7°C° 0 mm 3 m/s 753 mmHg 79%
    18:00 +5°C° 0 mm 3 m/s 753 mmHg 85%
    19:00 +5°C° 0 mm 2 m/s 752 mmHg 91%
    20:00 +4°C° 0 mm 3 m/s 752 mmHg 90%
    21:00 +4°C° 0 mm 3 m/s 751 mmHg 89%
    22:00 +4°C° 0 mm 3 m/s 750 mmHg 88%
    23:00 +4°C° 0 mm 3 m/s 750 mmHg 87%

    28 Fevereiro, Quinta-feira

    Tempo Temperatura Precipitação Vento Pressão Humidade
    00:00 +4°C° 0 mm 4 m/s 749 mmHg 87%
    01:00 +4°C° 0 mm 4 m/s 748 mmHg 86%
    02:00 +4°C° 0 mm 4 m/s 747 mmHg 83%
    03:00 +3°C° 0 mm 5 m/s 747 mmHg 81%
    04:00 +3°C° 0 mm 5 m/s 746 mmHg 78%
    05:00 +3°C° 0 mm 5 m/s 745 mmHg 83%
    06:00 +3°C° 0 mm 6 m/s 745 mmHg 87%
    07:00 +2°C° 0 mm 7 m/s 745 mmHg 91%
    08:00 +3°C° 0 mm 7 m/s 745 mmHg 89%
    09:00 +3°C° 0 mm 7 m/s 745 mmHg 86%
    10:00 +2°C° 0 mm 8 m/s 745 mmHg 84%
    11:00 +4°C° 0 mm 8 m/s 745 mmHg 78%
    12:00 +5°C° 0 mm 8 m/s 745 mmHg 72%
    13:00 +6°C° 0 mm 9 m/s 745 mmHg 66%
    14:00 +5°C° 0 mm 9 m/s 745 mmHg 66%
    15:00 +5°C° 0 mm 9 m/s 745 mmHg 66%
    16:00 +5°C° 0 mm 8 m/s 745 mmHg 67%
    17:00 +4°C° 0 mm 8 m/s 745 mmHg 70%
    18:00 +3°C° 0 mm 7 m/s 745 mmHg 73%
    19:00 +2°C° 0 mm 6 m/s 746 mmHg 76%
    20:00 +2°C° 0 mm 6 m/s 746 mmHg 77%
    21:00 +2°C° 0 mm 5 m/s 746 mmHg 78%
    22:00 +2°C° 0 mm 5 m/s 746 mmHg 79%
    23:00 +1°C° 0 mm 5 m/s 747 mmHg 81%
    Mostrar mais